This demonstration page uses our WeatherBlox Daily Observations layout. Learn more.

Left ArrowRight Arrow

Hourly Observations for June 20, 2015

Temp ( °F °C ) Dew Point ( °F °C ) Humidity (%) Winds ( mph kmh ) Pressure ( in mb ) Visibility ( mi km ) Precip ( " mm )
12:53 am 00:53 Clear 50 10 44 6.7 80 80 WNW 6 9 29.87 1012 10 16 0.00 0.00
1:53 am 01:53 Partly Cloudy 51 10.6 45 7.2 80 80 SW 10 17 29.86 1011 10 16 0.00 0.00
2:53 am 02:53 Clear 54 12.2 46 7.8 75 75 SW 13 20 29.87 1011 10 16 0.00 0.00
3:53 am 03:53 Clear 54 12.2 46 7.8 75 75 SW 12 19 29.87 1012 10 16 0.00 0.00
4:53 am 04:53 Clear 51 10.6 45 7.2 80 80 SW 13 20 29.88 1012 10 16 0.00 0.00
5:53 am 05:53 Mostly Sunny 52 11.1 43 6.1 72 72 W 9 15 29.92 1013 10 16 0.00 0.00
6:53 am 06:53 Partly Cloudy 56 13.3 44 6.7 65 65 W 8 13 29.94 1014 10 16 0.00 0.00
7:53 am 07:53 Sunny 58 14.4 46 7.8 65 65 SW 6 9 29.95 1014 10 16 0.00 0.00
8:53 am 08:53 Sunny 62 16.7 48 8.9 60 60 W 5 7 29.96 1015 10 16 0.00 0.00
9:53 am 09:53 Sunny 66 18.9 47 8.3 50 50 VRB 6 9 29.96 1015 10 16 0.00 0.00
10:53 am 10:53 Sunny 70 21.1 47 8.3 44 44 WSW 5 7 29.95 1014 10 16 0.00 0.00
11:53 am 11:53 Sunny 73 22.8 44 6.7 35 35 VRB 5 7 29.93 1014 10 16 0.00 0.00
12:53 pm 12:53 Sunny 74 23.3 41 5 31 31 Calm 29.93 1013 10 16 0.00 0.00
1:53 pm 13:53 Sunny 76 24.4 38 3.3 25 25 undefined N/A 29.90 1013 10 16 0.00 0.00
2:53 pm 14:53 Mostly Sunny 78 25.6 36 2.2 22 22 VRB 5 7 29.88 1012 10 16 0.00 0.00
3:53 pm 15:53 Mostly Sunny 79 26.1 38 3.3 23 23 S 9 15 29.86 1011 10 16 0.00 0.00
4:53 pm 16:53 Mostly Sunny 79 26.1 37 2.8 22 22 SSW 9 15 29.86 1011 10 16 0.00 0.00
5:53 pm 17:53 Sunny 77 25 33 0.6 20 20 SW 8 13 29.85 1011 10 16 0.00 0.00
6:53 pm 18:53 Sunny 77 25 38 3.3 24 24 S 8 13 29.83 1010 10 16 0.00 0.00
7:53 pm 19:53 Sunny 77 25 37 3 24 24 S 8 13 29.74 1007 10 16 0.00 0.00
8:53 pm 20:53 Sunny 71 21.7 43 6.1 36 36 SSE 6 9 29.84 1010 10 16 0.00 0.00
11:53 pm 23:53 Clear 59 15 41 5 51 51 SSW 6 9 29.83 1010 10 16 0.00 0.00

Powered by AerisWeather